Boscobel, WI

2:16 AM CST on February 08, 2016 (GMT -0600)
Boscobel

Weather History for KOVS - April, 2013

Change the Weather History Date:

Wednesday, April 24, 2013

  Actual Average (KPDC) Record (KPDC)
Temperature  
Mean Temperature 42 °F -  
Max Temperature 55 °F 64 °F 84 °F (1962)
Min Temperature 32 °F 39 °F 22 °F (1956)
Degree Days  
Heating Degree Days 22    
Moisture  
Dew Point 25 °F    
Average Humidity 50    
Maximum Humidity 80    
Minimum Humidity 30    
Precipitation  
Precipitation 0.01 in - - ()
Sea Level Pressure  
Sea Level Pressure 30.05 in    
Wind  
Wind Speed 5 mph (WSW)    
Max Wind Speed 22 mph    
Max Gust Speed 33 mph    
Visibility 10 miles    
Events Rain    
Averages and records for this station are not official NWS values.
T = Trace of Precipitation, MM = Missing Value Source: NWS Daily Summary

Daily Weather History Graph

Daily Weather History Graph

Search for Another Location

Airport or City:

Trip Planner

Search our weather history database for the weather conditions in past years. The results will help you decide how hot, cold, wet, or windy it might be!

Date:

Astronomy

Apr. 24, 2013 Rise Set
Actual Time 6:05 AM CDT 7:56 PM CDT
Civil Twilight 5:35 AM CDT 8:26 PM CDT
Nautical Twilight 4:58 AM CDT 9:04 PM CDT
Astronomical Twilight 4:18 AM CDT 9:44 PM CDT
Moon 6:59 PM CDT (4/24) 5:11 AM CDT (4/24)
Length of Visible Light 14h 51m
Length of Day
13h 50m
Waxing Gibbous, 98% of the Moon is Illuminated
Apr 24
Waxing Gibbous
Apr 25
Full
May 2
Last Quarter
May 9
New
May 17
First Quarter

Hourly Weather History & Observations

Time (CDT) Temp. Windchill Dew Point Humidity Pressure Visibility Wind Dir Wind Speed Gust Speed Precip Events Conditions
12:53 AM 37.0 °F 34.5 °F 26.1 °F 65% 30.06 in 10.0 mi NW 3.5 mph - N/A   Mostly Cloudy
1:53 AM 34.0 °F - 25.0 °F 70% 30.06 in 10.0 mi Calm Calm - N/A   Clear
2:53 AM 33.1 °F - 26.1 °F 75% 30.07 in 10.0 mi Calm Calm - N/A   Clear
3:53 AM 34.0 °F 31.0 °F 25.0 °F 70% 30.05 in 10.0 mi NW 3.5 mph - N/A   Clear
5:53 AM 32.0 °F - 24.1 °F 73% 30.07 in 10.0 mi Calm Calm - N/A   Clear
6:53 AM 32.0 °F - 23.0 °F 69% 30.09 in 10.0 mi Calm Calm - N/A   Clear
7:53 AM 35.1 °F - 24.1 °F 64% 30.11 in 10.0 mi Calm Calm - N/A   Clear
8:53 AM 39.0 °F 35.7 °F 23.0 °F 53% 30.11 in 10.0 mi WNW 4.6 mph - N/A   Clear
9:53 AM 43.0 °F 38.8 °F 21.0 °F 42% 30.09 in 10.0 mi WNW 6.9 mph - N/A   Clear
10:53 AM 46.0 °F 42.5 °F 19.9 °F 35% 30.09 in 10.0 mi WNW 6.9 mph - 0.00 in   Clear
11:53 AM 46.9 °F - 17.1 °F 30% 30.08 in 10.0 mi Variable 5.8 mph - 0.00 in   Clear
12:53 PM 48.9 °F - 21.0 °F 33% 30.06 in 10.0 mi West 5.8 mph - 0.00 in Rain Light Rain
1:53 PM 51.1 °F - 21.0 °F 31% 30.05 in 10.0 mi WSW 6.9 mph - 0.00 in   Clear
2:53 PM 51.1 °F - 24.1 °F 35% 30.05 in 10.0 mi West 9.2 mph - 0.00 in Rain Light Rain
3:53 PM 53.1 °F - 26.1 °F 35% 30.04 in 10.0 mi WSW 10.4 mph - 0.00 in Rain Light Rain
4:53 PM 53.1 °F - 26.1 °F 35% 30.03 in 10.0 mi WSW 9.2 mph - 0.00 in   Partly Cloudy
5:53 PM 52.0 °F - 24.1 °F 34% 30.02 in 10.0 mi SW 15.0 mph 19.6 mph N/A   Mostly Cloudy
6:53 PM 51.1 °F - 25.0 °F 36% 30.01 in 10.0 mi WSW 13.8 mph 19.6 mph N/A   Scattered Clouds
7:53 PM 50.0 °F - 25.0 °F 38% 30.01 in 10.0 mi SW 10.4 mph - N/A   Mostly Cloudy
8:53 PM 48.9 °F - 25.0 °F 39% 29.99 in 10.0 mi South 8.1 mph - N/A   Partly Cloudy
9:53 PM 48.9 °F - 27.0 °F 43% 30.03 in 10.0 mi WSW 21.9 mph 33.4 mph 0.00 in Rain Light Rain
10:53 PM 43.0 °F 38.8 °F 37.0 °F 80% 30.03 in 10.0 mi SW 6.9 mph - 0.01 in   Overcast
11:53 PM 43.0 °F 36.4 °F 36.0 °F 76% 30.02 in 10.0 mi SW 12.7 mph - N/A   Overcast